Location: Baix
(44.7118°N, 4.7648°E)
Time: 02:04:33
(UTC+00:00)

NPP - Pass Details

Date: 07 August 2020
Orbit: 826 x 828 km, 98.7° (Epoch: 19 September)

Event Time Altitude Azimuth Distance (km) Brightness Sun altitude
Rises 02:09:07 0° 8° (N) 3,377 7.9 -20.9°
Reaches altitude 10° 02:11:33 10° 3° (N) 2,440 6.9 -20.7°
Maximum altitude 02:16:40 46° 292° (WNW) 1,106 4.1 -20.1°
Enters shadow 02:18:22 35° 247° (WSW) 1,321 4.2 -19.9°
